Regional Weather Roundup
Issued by NWS Sterling, VA

Home | Current Version | Previous Version | Text Only | Print | Product List | Glossary Off
Versions: 1 2 3 4 5 6 7 8 9 10 11 12 13 14 15 16 17 18 19 20 21 22 23 24 25 26 27 28 29 30 31 32 33 34 35 36 37 38 39 40 41 42 43 44 45 46 47 48 49 50

000
ASUS41 KLWX 051111
RWRLWX

REGIONAL WEATHER ROUNDUP
NATIONAL WEATHER SERVICE BALTIMORE MD/WASHINGTON DC
700 AM EDT THU MAY 05 2016

Note: "FAIR" indicates few or no clouds below 12,000 feet
with no significant weather and/or obstructions to visibility.
 TC=TEMPERATURE CELSIUS

 * =Non NWS site. Station does not report precipitation (e.g. rain,
    snow, etc.), thunder, or fog.

DCZ001-MDZ009-015-VAZ040>042-051-053>054-051200-
WASHINGTON METRO

CITY           SKY/WX    TMP DP  RH WIND       PRES   REMARKS
WASHINGTON NAT DRIZZLE   51  48  89 NE9       29.66R
DULLES         DRIZZLE   50  48  93 NE6       29.65R FOG
ANDREWS AFB    CLOUDY    49  48  95 NE8       29.65R FOG
FT BELVOIR     CLOUDY    50  48  93 CALM      29.66R
QUANTICO       CLOUDY    52  50  93 E13       29.66R
COLLEGE PARK*  CLOUDY    48  46  93 CALM      29.65R
LEESBURG*      CLOUDY    52  52 100 NE6       29.67R
MANASSAS*      CLOUDY    52  50  93 NE5       29.65R
GAITHERSBURG*  CLOUDY    48  45  87 NE3       29.69S

$$

MDZ006>007-011-014-051200-
BALTIMORE METRO

CITY           SKY/WX    TMP DP  RH WIND       PRES   REMARKS
BWI AIRPORT    DRIZZLE   50  48  93 NE9       29.66R FOG
MD SCIENCE CTR   N/A     51  47  86 MISG      29.66R
MARTIN STATE   CLOUDY    52  52 100 N8        29.68R FOG
ANNAPOLIS      CLOUDY    51  48  89 NE8       29.66R
FORT MEADE*    CLOUDY    50  46  87 CALM      29.68R

$$

MDZ012-015-019>023-051200-
MARYLAND EASTERN SHORE

CITY           SKY/WX    TMP DP  RH WIND       PRES   REMARKS
OCEAN CITY     CLOUDY    49  46  90 NE13G22   29.64R
SALISBURY      CLOUDY    49  46  90 NE9       29.63S
CAMBRIDGE*     CLOUDY    46  45  93 NE5       29.64S
EASTON*        CLOUDY   N/A N/A N/A E6        29.70R

$$

MDZ017>025-051200-
SOUTHERN MARYLAND

CITY           SKY/WX    TMP DP  RH WIND       PRES   REMARKS
PATUXENT RIVER CLOUDY    50  46  86 NE13      29.64R
ST INIGOES     CLOUDY    51  48  89 NE9       29.63S
LEONARDTOWN*   CLOUDY    50  46  87 NE5       29.65S

$$

MDZ003>005-051200-
NORTH CENTRAL MARYLAND

CITY           SKY/WX    TMP DP  RH WIND       PRES   REMARKS
FREDERICK*     CLOUDY    50  50 100 NE6       29.69R FOG
HAGERSTOWN APT CLOUDY    50  46  86 NE6       29.67R FOG
WESTMINSTER*   CLOUDY    48  27  43 NE6       29.65S HAZE

$$

MDZ501>502-051200-
WESTERN MARYLAND

CITY           SKY/WX    TMP DP  RH WIND       PRES   REMARKS
OAKLAND*       FOG       41  41 100 CALM      29.65S VSB 1/4
CUMBERLAND*    CLOUDY    52  50  93 CALM      29.70S

$$

VAZ025>031-051200-
SHENANDOAH VALLEY

CITY           SKY/WX    TMP DP  RH WIND       PRES   REMARKS
WINCHESTER*    CLOUDY    50  48  93 CALM      29.65S FOG
FRONT ROYAL*   CLOUDY    48  46  93 N3        29.64R
LURAY*         CLOUDY    50  50 100 NE7       29.63R
NEW MARKET*    CLOUDY    51  50  95 N6        29.62R
STAUNTON*      CLOUDY    53  53 100 N6        29.63R
WAYNESBORO*    CLOUDY    50  49  95 NW3       29.61R

$$

WVZ021-048>050-054>055-051200-
EASTERN WEST VIRGINIA PANHANDLE

CITY           SKY/WX    TMP DP  RH WIND       PRES   REMARKS
MARTINSBURG    CLOUDY    50  48  93 N6        29.65S
PETERSBURG*    LGT RAIN  52  50  93 NW3       29.64S

$$

VAZ036>039-050-051200-
CENTRAL FOOTHILLS

CITY           SKY/WX    TMP DP  RH WIND       PRES   REMARKS
CHARLOTTESVILL CLOUDY    52  50  93 NE9       29.61S FOG
CULPEPER*      CLOUDY    51  50  96 NE3       29.66R
ORANGE*        DRIZZLE   52  52 100 NE3       29.65R
GORDONSVILLE*  CLOUDY    51  51 100 NE6       29.62S FOG
WARRENTON*     CLOUDY    51  46  83 NE3       29.65R

$$

VAZ055>057-051200-
NORTH AND CENTRAL PIEDMONT

CITY           SKY/WX    TMP DP  RH WIND       PRES   REMARKS
FREDERICKSBRG* CLOUDY    52  52 100 NE7       29.64R
STAFFORD*      CLOUDY    50  47  92 E6        29.69R

$$

NCZ024-NYZ072-PAZ021-071-VAZ022-071-051200-
OTHER REGIONAL OBSERVATIONS

CITY           SKY/WX    TMP DP  RH WIND       PRES   REMARKS
NEW YORK CITY  CLOUDY    47  43  86 VRB7      29.72S FOG
PHILADELPHIA   CLOUDY    50  43  77 NE12      29.69R
PITTSBURGH     CLOUDY    50  46  86 N7        29.67R
ROANOKE        RAIN      50  48  93 W3        29.64R FOG
RICHMOND       CLOUDY    51  50  96 NE10      29.61R
RALEIGH        FOG       57  56  96 NE5       29.55S VSB 1/2

$$

ANZ530>537-051200-
MARINE OBSERVATIONS

STATION/POSITION TIME  TEMP    WIND        PRES
                       AIR SEA DIR/SP/G
                 (UTC) (F)     (DEG/KT/KT) (MB)
THOMAS PT LIGHT  1100   50 58   70/ 12/ 14 1005.7R
BALT KEY BRIDGE  1000   51      30/  9/ 12 1003.6F
COVE POINT       1000   50      50/ 12/ 14 1003.8F
LEWISETTA        1000   52 62   60/  7/ 11 1002.6F
SOLOMONS ISLAND  1000   51 61   40/  6/  9   N/A
PINEY POINT      1000           50/  4/  6   N/A

$$




USA.gov is the U.S. government's official web portal to all federal, state and local government web resources and services.